Year,Month,Day,Hour,Minute,Value (Times are PST for temperature in C)
2016,04,18,00,00,9.90
2016,04,18,00,01,9.90
2016,04,18,00,02,9.80
2016,04,18,00,03,9.80
2016,04,18,00,04,9.80
2016,04,18,00,05,9.80
2016,04,18,00,06,9.80
2016,04,18,00,07,9.80
2016,04,18,00,08,9.70
2016,04,18,00,09,9.70
2016,04,18,00,10,9.70
2016,04,18,00,11,9.70
2016,04,18,00,12,9.70
2016,04,18,00,17,9.70
2016,04,18,00,18,9.70
2016,04,18,00,19,9.70
2016,04,18,00,20,9.70
2016,04,18,00,21,9.60
2016,04,18,00,22,9.60
2016,04,18,00,23,9.60
2016,04,18,00,24,9.60
2016,04,18,00,25,9.60
2016,04,18,00,26,9.60
2016,04,18,00,27,9.60
2016,04,18,00,28,9.60
2016,04,18,00,29,9.60
2016,04,18,00,30,9.60
2016,04,18,00,31,9.60
2016,04,18,00,32,9.60
2016,04,18,00,33,9.70
2016,04,18,00,34,9.70
2016,04,18,00,35,9.70
2016,04,18,00,36,9.60
2016,04,18,00,37,9.60
2016,04,18,00,38,9.60
2016,04,18,00,39,9.60
2016,04,18,00,40,9.60
2016,04,18,00,41,9.60
2016,04,18,00,42,9.60
2016,04,18,00,43,9.60
2016,04,18,00,44,9.60
2016,04,18,00,45,9.60
2016,04,18,00,46,9.60
2016,04,18,00,47,9.60
2016,04,18,00,48,9.60
2016,04,18,00,49,9.50
2016,04,18,00,50,9.50
2016,04,18,00,51,9.50
2016,04,18,00,52,9.50
2016,04,18,00,53,9.50
2016,04,18,00,54,9.50
2016,04,18,00,55,9.50
2016,04,18,00,56,9.40
2016,04,18,00,57,9.40
2016,04,18,00,58,9.40
2016,04,18,00,59,9.40
2016,04,18,01,00,9.40
2016,04,18,01,01,9.40
2016,04,18,01,02,9.40
2016,04,18,01,03,9.40
2016,04,18,01,04,9.40
2016,04,18,01,05,9.40
2016,04,18,01,06,9.40
2016,04,18,01,07,9.40
2016,04,18,01,08,9.40
2016,04,18,01,09,9.40
2016,04,18,01,10,9.40
2016,04,18,01,11,9.30
2016,04,18,01,12,9.30
2016,04,18,01,13,9.30
2016,04,18,01,14,9.30
2016,04,18,01,15,9.30
2016,04,18,01,16,9.30
2016,04,18,01,17,9.30
2016,04,18,01,18,9.30
2016,04,18,01,19,9.30
2016,04,18,01,20,9.30
2016,04,18,01,21,9.30
2016,04,18,01,22,9.30
2016,04,18,01,23,9.30
2016,04,18,01,24,9.30
2016,04,18,01,25,9.30
2016,04,18,01,26,9.30
2016,04,18,01,27,9.30
2016,04,18,01,28,9.30
2016,04,18,01,29,9.30
2016,04,18,01,30,9.30
2016,04,18,01,31,9.20
2016,04,18,01,32,9.20
2016,04,18,01,33,9.20
2016,04,18,01,34,9.20
2016,04,18,01,35,9.20
2016,04,18,01,36,9.20
2016,04,18,01,37,9.20
2016,04,18,01,38,9.30
2016,04,18,01,39,9.30
2016,04,18,01,40,9.30
2016,04,18,01,41,9.30
2016,04,18,01,42,9.30
2016,04,18,01,43,9.30
2016,04,18,01,44,9.30
2016,04,18,01,45,9.30
2016,04,18,01,46,9.30
2016,04,18,01,47,9.30
2016,04,18,01,48,9.30
2016,04,18,01,49,9.20
2016,04,18,01,50,9.20
2016,04,18,01,51,9.20
2016,04,18,01,52,9.20
2016,04,18,01,53,9.20
2016,04,18,01,54,9.20
2016,04,18,01,55,9.20
2016,04,18,01,56,9.20
2016,04,18,01,57,9.30
2016,04,18,01,58,9.30
2016,04,18,01,59,9.30
2016,04,18,02,00,9.30
2016,04,18,02,01,9.30
2016,04,18,02,02,9.30
2016,04,18,02,03,9.30
2016,04,18,02,04,9.30
2016,04,18,02,05,9.30
2016,04,18,02,06,9.40
2016,04,18,02,07,9.40
2016,04,18,02,08,9.40
2016,04,18,02,09,9.40
2016,04,18,02,10,9.40
2016,04,18,02,11,9.40
2016,04,18,02,12,9.40
2016,04,18,02,13,9.40
2016,04,18,02,14,9.40
2016,04,18,02,15,9.30
2016,04,18,02,16,9.30
2016,04,18,02,17,9.30
2016,04,18,02,18,9.30
2016,04,18,02,19,9.20
2016,04,18,02,20,9.20
2016,04,18,02,21,9.20
2016,04,18,02,22,9.20
2016,04,18,02,23,9.20
2016,04,18,02,24,9.20
2016,04,18,02,25,9.10
2016,04,18,02,26,9.10
2016,04,18,02,27,9.20
2016,04,18,02,28,9.20
2016,04,18,02,29,9.20
2016,04,18,02,30,9.20
2016,04,18,02,31,9.20
2016,04,18,02,32,9.20
2016,04,18,02,33,9.20
2016,04,18,02,34,9.20
2016,04,18,02,35,9.10
2016,04,18,02,36,9.20
2016,04,18,02,37,9.20
2016,04,18,02,38,9.20
2016,04,18,02,39,9.20
2016,04,18,02,40,9.10
2016,04,18,02,41,9.10
2016,04,18,02,42,9.10
2016,04,18,02,43,9.10
2016,04,18,02,44,9.10
2016,04,18,02,45,9.10
2016,04,18,02,46,9.10
2016,04,18,02,47,9.10
2016,04,18,02,48,9.10
2016,04,18,02,49,9.10
2016,04,18,02,50,9.10
2016,04,18,02,51,9.10
2016,04,18,02,52,9.10
2016,04,18,02,53,9.10
2016,04,18,02,54,9.10
2016,04,18,02,55,9.10
2016,04,18,02,56,9.10
2016,04,18,02,57,9.10
2016,04,18,02,58,9.20
2016,04,18,02,59,9.20
2016,04,18,03,00,9.20
2016,04,18,03,01,9.20
2016,04,18,03,02,9.20
2016,04,18,03,03,9.20
2016,04,18,03,04,9.20
2016,04,18,03,05,9.20
2016,04,18,03,06,9.20
2016,04,18,03,07,9.20
2016,04,18,03,08,9.20
2016,04,18,03,09,9.10
2016,04,18,03,10,9.10
2016,04,18,03,11,9.10
2016,04,18,03,12,9.10
2016,04,18,03,13,9.10
2016,04,18,03,14,9.10
2016,04,18,03,15,9.10
2016,04,18,03,16,9.00
2016,04,18,03,17,9.00
2016,04,18,03,18,9.00
2016,04,18,03,19,9.00
2016,04,18,03,20,9.00
2016,04,18,03,21,8.90
2016,04,18,03,22,8.90
2016,04,18,03,23,8.90
2016,04,18,03,24,8.90
2016,04,18,03,25,8.90
2016,04,18,03,26,8.90
2016,04,18,03,27,8.90
2016,04,18,03,28,8.90
2016,04,18,03,29,8.90
2016,04,18,03,30,8.90
2016,04,18,03,31,8.90
2016,04,18,03,32,8.90
2016,04,18,03,33,8.90
2016,04,18,03,34,8.90
2016,04,18,03,35,8.80
2016,04,18,03,36,8.90
2016,04,18,03,37,8.90
2016,04,18,03,38,8.90
2016,04,18,03,39,8.80
2016,04,18,03,40,8.80
2016,04,18,03,41,8.80
2016,04,18,03,42,8.80
2016,04,18,03,43,8.90
2016,04,18,03,44,8.90
2016,04,18,03,45,8.90
2016,04,18,03,46,9.00
2016,04,18,03,47,9.00
2016,04,18,03,48,9.00
2016,04,18,03,49,9.00
2016,04,18,03,50,9.00
2016,04,18,03,51,9.10
2016,04,18,03,52,9.10
2016,04,18,03,53,9.10
2016,04,18,03,54,9.10
2016,04,18,03,55,9.10
2016,04,18,03,56,9.10
2016,04,18,03,57,9.10
2016,04,18,03,58,9.10
2016,04,18,03,59,9.10
2016,04,18,04,00,9.00
2016,04,18,04,01,9.00
2016,04,18,04,02,9.00
2016,04,18,04,03,9.00
2016,04,18,04,04,8.90
2016,04,18,04,05,8.90
2016,04,18,04,06,8.90
2016,04,18,04,07,8.90
2016,04,18,04,08,8.90
2016,04,18,04,09,8.90
2016,04,18,04,10,8.90
2016,04,18,04,11,8.90
2016,04,18,04,12,8.90
2016,04,18,04,13,8.90
2016,04,18,04,14,8.90
2016,04,18,04,15,8.90
2016,04,18,04,16,8.90
2016,04,18,04,17,8.90
2016,04,18,04,18,8.80
2016,04,18,04,19,8.80
2016,04,18,04,20,8.80
2016,04,18,04,21,8.80
2016,04,18,04,22,8.80
2016,04,18,04,23,8.80
2016,04,18,04,24,8.80
2016,04,18,04,25,8.80
2016,04,18,04,26,8.80
2016,04,18,04,27,8.80
2016,04,18,04,28,8.70
2016,04,18,04,29,8.70
2016,04,18,04,30,8.70
2016,04,18,04,31,8.70
2016,04,18,04,32,8.70
2016,04,18,04,33,8.70
2016,04,18,04,34,8.70
2016,04,18,04,35,8.70
2016,04,18,04,36,8.70
2016,04,18,04,37,8.70
2016,04,18,04,38,8.70
2016,04,18,04,39,8.70
2016,04,18,04,40,8.70
2016,04,18,04,41,8.60
2016,04,18,04,42,8.60
2016,04,18,04,43,8.60
2016,04,18,04,44,8.60
2016,04,18,04,45,8.60
2016,04,18,04,46,8.60
2016,04,18,04,47,8.60
2016,04,18,04,48,8.60
2016,04,18,04,49,8.50
2016,04,18,04,50,8.50
2016,04,18,04,51,8.50
2016,04,18,04,52,8.50
2016,04,18,04,53,8.50
2016,04,18,04,54,8.50
2016,04,18,04,55,8.50
2016,04,18,04,56,8.50
2016,04,18,04,57,8.50
2016,04,18,04,58,8.50
2016,04,18,04,59,8.40
2016,04,18,05,00,8.40
2016,04,18,05,01,8.40
2016,04,18,05,02,8.40
2016,04,18,05,03,8.40
2016,04,18,05,04,8.40
2016,04,18,05,05,8.40
2016,04,18,05,06,8.40
2016,04,18,05,07,8.40
2016,04,18,05,08,8.40
2016,04,18,05,09,8.40
2016,04,18,05,10,8.40
2016,04,18,05,11,8.40
2016,04,18,05,12,8.40
2016,04,18,05,13,8.40
2016,04,18,05,14,8.40
2016,04,18,05,15,8.40
2016,04,18,05,16,8.40
2016,04,18,05,17,8.40
2016,04,18,05,18,8.40
2016,04,18,05,19,8.40
2016,04,18,05,20,8.40
2016,04,18,05,21,8.40
2016,04,18,05,22,8.40
2016,04,18,05,23,8.40
2016,04,18,05,24,8.40
2016,04,18,05,25,8.40
2016,04,18,05,26,8.40
2016,04,18,05,27,8.40
2016,04,18,05,28,8.40
2016,04,18,05,29,8.40
2016,04,18,05,30,8.40
2016,04,18,05,31,8.40
2016,04,18,05,32,8.40
2016,04,18,05,33,8.50
2016,04,18,05,34,8.50
2016,04,18,05,35,8.50
2016,04,18,05,36,8.50
2016,04,18,05,37,8.40
2016,04,18,05,38,8.40
2016,04,18,05,39,8.40
2016,04,18,05,40,8.40
2016,04,18,05,41,8.40
2016,04,18,05,42,8.40
2016,04,18,05,43,8.40
2016,04,18,05,44,8.40
2016,04,18,05,45,8.30
2016,04,18,05,46,8.30
2016,04,18,05,47,8.30
2016,04,18,05,48,8.30
2016,04,18,05,49,8.30
2016,04,18,05,50,8.30
2016,04,18,05,51,8.30
2016,04,18,05,52,8.30
2016,04,18,05,53,8.30
2016,04,18,05,54,8.30
2016,04,18,05,55,8.30
2016,04,18,05,56,8.30
2016,04,18,05,57,8.20
2016,04,18,05,58,8.20
2016,04,18,05,59,8.20
2016,04,18,06,00,8.20
2016,04,18,06,01,8.20
2016,04,18,06,02,8.20
2016,04,18,06,03,8.20
2016,04,18,06,04,8.20
2016,04,18,06,05,8.20
2016,04,18,06,06,8.20
2016,04,18,06,07,8.20
2016,04,18,06,08,8.20
2016,04,18,06,09,8.20
2016,04,18,06,10,8.20
2016,04,18,06,11,8.10
2016,04,18,06,12,8.10
2016,04,18,06,13,8.10
2016,04,18,06,14,8.10
2016,04,18,06,15,8.10
2016,04,18,06,16,8.10
2016,04,18,06,17,8.10
2016,04,18,06,18,8.10
2016,04,18,06,19,8.10
2016,04,18,06,20,8.10
2016,04,18,06,21,8.00
2016,04,18,06,22,8.00
2016,04,18,06,23,8.00
2016,04,18,06,24,8.00
2016,04,18,06,25,8.00
2016,04,18,06,26,7.90
2016,04,18,06,27,7.90
2016,04,18,06,28,7.90
2016,04,18,06,29,7.90
2016,04,18,06,30,7.90
2016,04,18,06,31,7.90
2016,04,18,06,32,7.90
2016,04,18,06,33,7.90
2016,04,18,06,34,7.90
2016,04,18,06,35,7.90
2016,04,18,06,36,7.90
2016,04,18,06,37,7.90
2016,04,18,06,38,7.90
2016,04,18,06,39,7.90
2016,04,18,06,40,7.90
2016,04,18,06,41,7.90
2016,04,18,06,42,7.90
2016,04,18,06,43,7.90
2016,04,18,06,44,7.90
2016,04,18,06,45,7.90
2016,04,18,06,46,8.00
2016,04,18,06,47,8.00
2016,04,18,06,48,8.10
2016,04,18,06,49,8.10
2016,04,18,06,50,8.20
2016,04,18,06,51,8.20
2016,04,18,06,52,8.20
2016,04,18,06,53,8.20
2016,04,18,06,54,8.20
2016,04,18,06,55,8.20
2016,04,18,06,56,8.20
2016,04,18,06,57,8.20
2016,04,18,06,58,8.20
2016,04,18,06,59,8.20
2016,04,18,07,00,8.20
2016,04,18,07,01,8.30
2016,04,18,07,02,8.30
2016,04,18,07,03,8.30
2016,04,18,07,04,8.30
2016,04,18,07,05,8.30
2016,04,18,07,06,8.30
2016,04,18,07,07,8.30
2016,04,18,07,08,8.30
2016,04,18,07,09,8.30
2016,04,18,07,10,8.30
2016,04,18,07,11,8.30
2016,04,18,07,12,8.30
2016,04,18,07,13,8.30
2016,04,18,07,14,8.40
2016,04,18,07,15,8.40
2016,04,18,07,16,8.40
2016,04,18,07,17,8.50
2016,04,18,07,18,8.60
2016,04,18,07,19,8.60
2016,04,18,07,20,8.60
2016,04,18,07,21,8.60
2016,04,18,07,22,8.60
2016,04,18,07,23,8.60
2016,04,18,07,24,8.70
2016,04,18,07,25,8.70
2016,04,18,07,26,8.80
2016,04,18,07,27,8.90
2016,04,18,07,28,9.00
2016,04,18,07,29,9.00
2016,04,18,07,30,9.00
2016,04,18,07,31,9.10
2016,04,18,07,32,9.10
2016,04,18,07,33,9.20
2016,04,18,07,34,9.30
2016,04,18,07,35,9.30
2016,04,18,07,36,9.30
2016,04,18,07,37,9.30
2016,04,18,07,38,9.30
2016,04,18,07,39,9.30
2016,04,18,07,40,9.40
2016,04,18,07,41,9.40
2016,04,18,07,42,9.40
2016,04,18,07,43,9.40
2016,04,18,07,44,9.40
2016,04,18,07,45,9.50
2016,04,18,07,46,9.50
2016,04,18,07,47,9.50
2016,04,18,07,48,9.50
2016,04,18,07,49,9.60
2016,04,18,07,50,9.60
2016,04,18,07,51,9.60
2016,04,18,07,52,9.70
2016,04,18,07,53,9.70
2016,04,18,07,54,9.70
2016,04,18,07,55,9.80
2016,04,18,07,56,9.80
2016,04,18,07,57,9.80
2016,04,18,07,58,9.90
2016,04,18,07,59,9.90
2016,04,18,08,00,10.00
2016,04,18,08,01,10.10
2016,04,18,08,02,10.20
2016,04,18,08,03,10.30
2016,04,18,08,04,10.30
2016,04,18,08,05,10.40
2016,04,18,08,06,10.40
2016,04,18,08,07,10.50
2016,04,18,08,08,10.50
2016,04,18,08,09,10.60
2016,04,18,08,10,10.70
2016,04,18,08,11,10.70
2016,04,18,08,12,10.80
2016,04,18,08,13,11.00
2016,04,18,08,14,11.10
2016,04,18,08,15,11.20
2016,04,18,08,16,11.30
2016,04,18,08,17,11.40
2016,04,18,08,18,11.50
2016,04,18,08,19,11.50
2016,04,18,08,20,11.70
2016,04,18,08,21,11.70
2016,04,18,08,22,11.80
2016,04,18,08,23,11.90
2016,04,18,08,24,11.90
2016,04,18,08,25,12.00
2016,04,18,08,26,12.10
2016,04,18,08,27,12.20
2016,04,18,08,28,12.20
2016,04,18,08,29,12.30
2016,04,18,08,30,12.40
2016,04,18,08,31,12.50
2016,04,18,08,32,12.60
2016,04,18,08,33,12.60
2016,04,18,08,34,12.70
2016,04,18,08,35,12.70
2016,04,18,08,36,12.80
2016,04,18,08,37,12.80
2016,04,18,08,38,12.90
2016,04,18,08,39,13.00
2016,04,18,08,40,13.10
2016,04,18,08,41,13.10
2016,04,18,08,42,13.20
2016,04,18,08,43,13.30
2016,04,18,08,44,13.40
2016,04,18,08,45,13.50
2016,04,18,08,46,13.60
2016,04,18,08,47,13.70
2016,04,18,08,48,13.80
2016,04,18,08,49,13.90
2016,04,18,08,50,14.00
2016,04,18,08,51,14.10
2016,04,18,08,52,14.20
2016,04,18,08,53,14.30
2016,04,18,08,54,14.40
2016,04,18,08,55,14.50
2016,04,18,08,56,14.50
2016,04,18,08,57,14.60
2016,04,18,08,58,14.70
2016,04,18,08,59,14.70
2016,04,18,09,00,14.80
2016,04,18,09,01,14.80
2016,04,18,09,02,14.80
2016,04,18,09,03,14.90
2016,04,18,09,04,14.90
2016,04,18,09,05,15.00
2016,04,18,09,06,15.00
2016,04,18,09,07,15.10
2016,04,18,09,08,15.20
2016,04,18,09,09,15.30
2016,04,18,09,10,15.40
2016,04,18,09,11,15.50
2016,04,18,09,12,15.60
2016,04,18,09,13,15.70
2016,04,18,09,14,15.70
2016,04,18,09,15,15.70
2016,04,18,09,16,15.80
2016,04,18,09,17,15.80
2016,04,18,09,18,15.90
2016,04,18,09,19,16.00
2016,04,18,09,20,16.00
2016,04,18,09,21,16.10
2016,04,18,09,22,16.10
2016,04,18,09,23,16.20
2016,04,18,09,24,16.20
2016,04,18,09,25,16.30
2016,04,18,09,26,16.30
2016,04,18,09,27,16.40
2016,04,18,09,28,16.40
2016,04,18,09,29,16.50
2016,04,18,09,30,16.50
2016,04,18,09,31,16.60
2016,04,18,09,32,16.60
2016,04,18,09,33,16.60
2016,04,18,09,34,16.60
2016,04,18,09,35,16.70
2016,04,18,09,36,16.70
2016,04,18,09,37,16.70
2016,04,18,09,38,16.80
2016,04,18,09,39,16.80
2016,04,18,09,40,16.90
2016,04,18,09,41,17.00
2016,04,18,09,42,17.10
2016,04,18,09,43,17.10
2016,04,18,09,44,17.20
2016,04,18,09,45,17.30
2016,04,18,09,46,17.50
2016,04,18,09,47,17.60
2016,04,18,09,48,17.70
2016,04,18,09,49,17.80
2016,04,18,09,50,17.80
2016,04,18,09,51,17.90
2016,04,18,09,52,17.90
2016,04,18,09,53,17.90
2016,04,18,09,54,17.90
2016,04,18,09,55,17.90
2016,04,18,09,56,17.90
2016,04,18,09,57,17.90
2016,04,18,09,58,17.90
2016,04,18,09,59,17.80
2016,04,18,10,00,17.70
2016,04,18,10,01,17.60
2016,04,18,10,02,17.50
2016,04,18,10,03,17.40
2016,04,18,10,04,17.20
2016,04,18,10,05,17.10
2016,04,18,10,06,17.00
2016,04,18,10,07,16.90
2016,04,18,10,08,16.80
2016,04,18,10,09,16.80
2016,04,18,10,10,16.70
2016,04,18,10,11,16.70
2016,04,18,10,12,16.70
2016,04,18,10,13,16.80
2016,04,18,10,14,16.90
2016,04,18,10,15,17.00
2016,04,18,10,16,17.00
2016,04,18,10,17,17.20
2016,04,18,10,18,17.20
2016,04,18,10,19,17.30
2016,04,18,10,20,17.40
2016,04,18,10,21,17.50
2016,04,18,10,22,17.50
2016,04,18,10,23,17.60
2016,04,18,10,24,17.70
2016,04,18,10,25,17.70
2016,04,18,10,26,17.80
2016,04,18,10,27,17.90
2016,04,18,10,28,17.90
2016,04,18,10,29,17.90
2016,04,18,10,30,18.00
2016,04,18,10,31,18.00
2016,04,18,10,32,18.00
2016,04,18,10,33,18.00
2016,04,18,10,34,18.10
2016,04,18,10,35,18.20
2016,04,18,10,36,18.20
2016,04,18,10,37,18.30
2016,04,18,10,38,18.30
2016,04,18,10,39,18.30
2016,04,18,10,40,18.30
2016,04,18,10,41,18.40
2016,04,18,10,42,18.40
2016,04,18,10,43,18.40
2016,04,18,10,44,18.30
2016,04,18,10,45,18.30
2016,04,18,10,46,18.30
2016,04,18,10,47,18.30
2016,04,18,10,48,18.30
2016,04,18,10,49,18.20
2016,04,18,10,50,18.20
2016,04,18,10,51,18.20
2016,04,18,10,52,18.20
2016,04,18,10,53,18.20
2016,04,18,10,54,18.30
2016,04,18,10,55,18.40
2016,04,18,10,56,18.50
2016,04,18,10,57,18.50
2016,04,18,10,58,18.70
2016,04,18,10,59,18.70
2016,04,18,11,00,18.80
2016,04,18,11,01,18.80
2016,04,18,11,02,18.80
2016,04,18,11,03,18.80
2016,04,18,11,04,18.80
2016,04,18,11,05,18.80
2016,04,18,11,06,18.80
2016,04,18,11,07,18.70
2016,04,18,11,08,18.70
2016,04,18,11,09,18.80
2016,04,18,11,10,18.80
2016,04,18,11,11,18.90
2016,04,18,11,12,18.90
2016,04,18,11,13,19.00
2016,04,18,11,14,19.10
2016,04,18,11,15,19.10
2016,04,18,11,16,19.20
2016,04,18,11,17,19.30
2016,04,18,11,18,19.30
2016,04,18,11,19,19.30
2016,04,18,11,20,19.40
2016,04,18,11,21,19.40
2016,04,18,11,22,19.40
2016,04,18,11,23,19.40
2016,04,18,11,24,19.30
2016,04,18,11,25,19.30
2016,04,18,11,26,19.30
2016,04,18,11,27,19.30
2016,04,18,11,28,19.30
2016,04,18,11,29,19.30
2016,04,18,11,30,19.40
2016,04,18,11,31,19.40
2016,04,18,11,32,19.40
2016,04,18,11,33,19.40
2016,04,18,11,34,19.50
2016,04,18,11,35,19.50
2016,04,18,11,36,19.60
2016,04,18,11,37,19.70
2016,04,18,11,38,19.70
2016,04,18,11,39,19.70
2016,04,18,11,40,19.80
2016,04,18,11,41,19.80
2016,04,18,11,42,19.80
2016,04,18,11,43,19.80
2016,04,18,11,44,19.80
2016,04,18,11,45,19.80
2016,04,18,11,46,19.80
2016,04,18,11,47,19.80
2016,04,18,11,48,19.80
2016,04,18,11,49,19.80
2016,04,18,11,50,19.80
2016,04,18,11,51,19.80
2016,04,18,11,52,19.80
2016,04,18,11,53,19.80
2016,04,18,11,54,19.70
2016,04,18,11,55,19.60
2016,04,18,11,56,19.60
2016,04,18,11,57,19.50
2016,04,18,11,58,19.50
2016,04,18,11,59,19.40
2016,04,18,12,00,19.30
2016,04,18,12,01,19.20
2016,04,18,12,02,19.20
2016,04,18,12,03,19.10
2016,04,18,12,04,19.10
2016,04,18,12,05,19.10
2016,04,18,12,06,19.10
2016,04,18,12,07,19.10
2016,04,18,12,08,19.10
2016,04,18,12,09,19.10
2016,04,18,12,10,19.10
2016,04,18,12,11,19.10
2016,04,18,12,12,19.10
2016,04,18,12,13,19.10
2016,04,18,12,14,19.20
2016,04,18,12,15,19.30
2016,04,18,12,16,19.30
2016,04,18,12,17,19.40
2016,04,18,12,18,19.50
2016,04,18,12,19,19.60
2016,04,18,12,20,19.70
2016,04,18,12,21,19.80
2016,04,18,12,22,19.80
2016,04,18,12,23,19.80
2016,04,18,12,24,19.80
2016,04,18,12,25,19.80
2016,04,18,12,26,19.80
2016,04,18,12,27,19.80
2016,04,18,12,28,19.80
2016,04,18,12,29,19.90
2016,04,18,12,30,19.90
2016,04,18,12,31,19.90
2016,04,18,12,32,19.90
2016,04,18,12,33,19.90
2016,04,18,12,34,19.90
2016,04,18,12,35,19.80
2016,04,18,12,36,19.80
2016,04,18,12,37,19.70
2016,04,18,12,38,19.70
2016,04,18,12,39,19.70
2016,04,18,12,40,19.70
2016,04,18,12,41,19.70
2016,04,18,12,42,19.60
2016,04,18,12,43,19.60
2016,04,18,12,44,19.60
2016,04,18,12,45,19.60
2016,04,18,12,46,19.70
2016,04,18,12,47,19.70
2016,04,18,12,48,19.80
2016,04,18,12,49,19.80
2016,04,18,12,50,19.90
2016,04,18,12,51,19.90
2016,04,18,12,52,19.90
2016,04,18,12,53,19.90
2016,04,18,12,54,19.70
2016,04,18,12,55,19.60
2016,04,18,12,56,19.50
2016,04,18,12,57,19.30
2016,04,18,12,58,19.20
2016,04,18,12,59,19.20
2016,04,18,13,00,19.10
2016,04,18,13,01,18.90
2016,04,18,13,02,18.80
2016,04,18,13,03,18.70
2016,04,18,13,04,18.70
2016,04,18,13,05,18.50
2016,04,18,13,06,18.40
2016,04,18,13,07,18.40
2016,04,18,13,08,18.40
2016,04,18,13,09,18.40
2016,04,18,13,10,18.30
2016,04,18,13,11,18.30
2016,04,18,13,12,18.20
2016,04,18,13,13,18.10
2016,04,18,13,28,19.00
2016,04,18,13,29,19.00
2016,04,18,13,30,19.10
2016,04,18,13,31,19.20
2016,04,18,13,32,19.30
2016,04,18,13,33,19.40
2016,04,18,13,34,19.40
2016,04,18,13,35,19.40
2016,04,18,13,36,19.50
2016,04,18,13,37,19.50
2016,04,18,13,38,19.60
2016,04,18,13,39,19.70
2016,04,18,13,40,19.80
2016,04,18,13,41,19.90
2016,04,18,13,42,20.00
2016,04,18,13,43,20.10
2016,04,18,13,44,20.10
2016,04,18,13,45,20.10
2016,04,18,13,46,20.10
2016,04,18,13,47,20.10
2016,04,18,13,48,20.00
2016,04,18,13,49,20.00
2016,04,18,13,50,20.00
2016,04,18,13,51,19.90
2016,04,18,13,52,19.90
2016,04,18,13,53,19.90
2016,04,18,13,54,19.90
2016,04,18,13,55,19.90
2016,04,18,13,56,19.90
2016,04,18,13,57,19.90
2016,04,18,13,58,19.90
2016,04,18,13,59,19.80
2016,04,18,14,00,19.80
2016,04,18,14,01,19.60
2016,04,18,14,02,19.60
2016,04,18,14,03,19.50
2016,04,18,14,04,19.40
2016,04,18,14,05,19.40
2016,04,18,14,06,19.40
2016,04,18,14,07,19.40
2016,04,18,14,08,19.40
2016,04,18,14,09,19.40
2016,04,18,14,10,19.30
2016,04,18,14,11,19.30
2016,04,18,14,12,19.30
2016,04,18,14,13,19.20
2016,04,18,14,14,19.30
2016,04,18,14,15,19.30
2016,04,18,14,16,19.30
2016,04,18,14,17,19.40
2016,04,18,14,18,19.50
2016,04,18,14,19,19.50
2016,04,18,14,20,19.50
2016,04,18,14,21,19.40
2016,04,18,14,22,19.20
2016,04,18,14,23,19.00
2016,04,18,14,24,18.80
2016,04,18,14,25,18.70
2016,04,18,14,26,18.50
2016,04,18,14,27,18.40
2016,04,18,14,28,18.20
2016,04,18,14,29,18.20
2016,04,18,14,30,18.10
2016,04,18,14,31,18.00
2016,04,18,14,32,17.90
2016,04,18,14,33,17.90
2016,04,18,14,34,17.80
2016,04,18,14,35,17.80
2016,04,18,14,36,17.80
2016,04,18,14,37,17.70
2016,04,18,14,38,17.60
2016,04,18,14,39,17.50
2016,04,18,14,40,17.40
2016,04,18,14,41,17.20
2016,04,18,14,42,17.10
2016,04,18,14,43,17.00
2016,04,18,14,44,16.90
2016,04,18,14,45,16.80
2016,04,18,14,46,16.80
2016,04,18,14,47,16.80
2016,04,18,14,48,16.80
2016,04,18,14,49,16.80
2016,04,18,14,50,16.80
2016,04,18,14,51,16.80
2016,04,18,14,52,16.80
2016,04,18,14,53,16.70
2016,04,18,14,54,16.70
2016,04,18,14,55,16.70
2016,04,18,14,56,16.70
2016,04,18,14,57,16.70
2016,04,18,14,58,16.80
2016,04,18,14,59,16.80
2016,04,18,15,00,16.80
2016,04,18,15,01,16.80
2016,04,18,15,02,16.80
2016,04,18,15,03,16.80
2016,04,18,15,04,16.80
2016,04,18,15,05,16.90
2016,04,18,15,06,16.90
2016,04,18,15,07,16.80
2016,04,18,15,08,16.90
2016,04,18,15,09,16.90
2016,04,18,15,10,17.00
2016,04,18,15,11,17.10
2016,04,18,15,12,17.20
2016,04,18,15,13,17.30
2016,04,18,15,14,17.40
2016,04,18,15,15,17.50
2016,04,18,15,16,17.60
2016,04,18,15,17,17.70
2016,04,18,15,18,17.80
2016,04,18,15,19,17.80
2016,04,18,15,20,17.80
2016,04,18,15,21,17.80
2016,04,18,15,22,17.70
2016,04,18,15,23,17.50
2016,04,18,15,24,17.30
2016,04,18,15,25,17.10
2016,04,18,15,26,16.90
2016,04,18,15,27,16.80
2016,04,18,15,28,16.80
2016,04,18,15,29,16.70
2016,04,18,15,30,16.70
2016,04,18,15,31,16.60
2016,04,18,15,32,16.60
2016,04,18,15,33,16.50
2016,04,18,15,34,16.50
2016,04,18,15,35,16.60
2016,04,18,15,36,16.60
2016,04,18,15,37,16.60
2016,04,18,15,38,16.70
2016,04,18,15,39,16.80
2016,04,18,15,40,17.00
2016,04,18,15,41,17.20
2016,04,18,15,42,17.40
2016,04,18,15,43,17.60
2016,04,18,15,44,17.80
2016,04,18,15,45,17.90
2016,04,18,15,46,18.10
2016,04,18,15,47,18.20
2016,04,18,15,48,18.30
2016,04,18,15,49,18.30
2016,04,18,15,50,18.30
2016,04,18,15,51,18.30
2016,04,18,15,52,18.30
2016,04,18,15,53,18.20
2016,04,18,15,54,18.20
2016,04,18,15,55,18.20
2016,04,18,15,56,18.10
2016,04,18,15,57,18.10
2016,04,18,15,58,18.10
2016,04,18,15,59,18.10
2016,04,18,16,00,18.10
2016,04,18,16,01,18.10
2016,04,18,16,02,18.10
2016,04,18,16,03,18.10
2016,04,18,16,04,18.10
2016,04,18,16,05,18.10
2016,04,18,16,06,18.10
2016,04,18,16,07,18.00
2016,04,18,16,08,18.00
2016,04,18,16,09,18.10
2016,04,18,16,10,18.10
2016,04,18,16,11,18.10
2016,04,18,16,12,18.20
2016,04,18,16,13,18.20
2016,04,18,16,14,18.30
2016,04,18,16,15,18.30
2016,04,18,16,16,18.20
2016,04,18,16,17,18.20
2016,04,18,16,18,18.20
2016,04,18,16,19,18.20
2016,04,18,16,20,18.10
2016,04,18,16,21,18.10
2016,04,18,16,22,18.10
2016,04,18,16,23,18.00
2016,04,18,16,24,18.00
2016,04,18,16,25,17.90
2016,04,18,16,26,17.80
2016,04,18,16,27,17.80
2016,04,18,16,28,17.70
2016,04,18,16,29,17.60
2016,04,18,16,30,17.50
2016,04,18,16,31,17.40
2016,04,18,16,32,17.30
2016,04,18,16,33,17.30
2016,04,18,16,34,17.30
2016,04,18,16,35,17.20
2016,04,18,16,36,17.30
2016,04,18,16,37,17.30
2016,04,18,16,38,17.30
2016,04,18,16,39,17.40
2016,04,18,16,40,17.40
2016,04,18,16,41,17.50
2016,04,18,16,42,17.50
2016,04,18,16,43,17.50
2016,04,18,16,44,17.50
2016,04,18,16,45,17.50
2016,04,18,16,46,17.50
2016,04,18,16,47,17.50
2016,04,18,16,48,17.60
2016,04,18,16,49,17.60
2016,04,18,16,50,17.60
2016,04,18,16,51,17.60
2016,04,18,16,52,17.70
2016,04,18,16,53,17.70
2016,04,18,16,54,17.70
2016,04,18,16,55,17.70
2016,04,18,16,56,17.70
2016,04,18,16,57,17.60
2016,04,18,16,58,17.60
2016,04,18,16,59,17.60
2016,04,18,17,00,17.60
2016,04,18,17,01,17.60
2016,04,18,17,02,17.70
2016,04,18,17,03,17.70
2016,04,18,17,04,17.70
2016,04,18,17,05,17.70
2016,04,18,17,06,17.70
2016,04,18,17,07,17.70
2016,04,18,17,08,17.70
2016,04,18,17,09,17.80
2016,04,18,17,10,17.80
2016,04,18,17,11,17.80
2016,04,18,17,12,17.80
2016,04,18,17,13,17.90
2016,04,18,17,14,17.90
2016,04,18,17,15,17.90
2016,04,18,17,22,17.80
2016,04,18,17,23,17.70
2016,04,18,17,24,17.60
2016,04,18,17,25,17.60
2016,04,18,17,26,17.60
2016,04,18,17,27,17.60
2016,04,18,17,28,17.70
2016,04,18,17,29,17.70
2016,04,18,17,30,17.70
2016,04,18,17,31,17.70
2016,04,18,17,32,17.80
2016,04,18,17,33,17.80
2016,04,18,17,34,17.80
2016,04,18,17,35,17.80
2016,04,18,17,36,17.80
2016,04,18,17,37,17.80
2016,04,18,17,38,17.80
2016,04,18,17,39,17.80
2016,04,18,17,40,17.80
2016,04,18,17,41,17.80
2016,04,18,17,42,17.80
2016,04,18,17,43,17.80
2016,04,18,17,44,17.80
2016,04,18,17,45,17.90
2016,04,18,17,46,18.00
2016,04,18,17,47,18.20
2016,04,18,17,48,18.30
2016,04,18,17,49,18.30
2016,04,18,17,50,18.30
2016,04,18,17,51,18.30
2016,04,18,17,52,18.30
2016,04,18,17,53,18.40
2016,04,18,17,54,18.40
2016,04,18,17,55,18.40
2016,04,18,17,56,18.50
2016,04,18,17,57,18.60
2016,04,18,17,58,18.60
2016,04,18,17,59,18.70
2016,04,18,18,00,18.70
2016,04,18,18,01,18.80
2016,04,18,18,02,18.80
2016,04,18,18,03,18.80
2016,04,18,18,04,18.70